[[{"header":{"parameterUnit":"m.s-1","parameterCategory":1,"la1":30.2991,"la2":30.254,"lo1":-89.0895,"lo2":-89.0444,"dy":0.0017,"dx":0.0017,"nx":28,"ny":28,"refTime":"2025-06-20T03:00:00:Z","depth":0,"parameterNumber":2,"parameterNumberName":"U-component_of_WINDS"},"data":[0,0,0,0,0,0,0,0,0,0,0,0,0,0,0,0,0,0,0,0,0,0,0,0,0,0,0,0,0,0,0,0,0,0,0,0,0,0,0,0,0,0,0,0,0,0,0,0,0,0,0,0,0,0,0,0,0,0,0.0835,0.0835,0,0.0813,0.0812,0.0812,0.0733,0.0732,0.073,0.0728,0.071,0.0711,0.0712,0,0,0,0,0,0,0,0,0,0,0,0,0,0.0812,0.0813,0.0835,0.0834,0.0834,0.0813,0.0812,0.0812,0.0734,0.0731,0.0729,0.0727,0.071,0.0711,0.0713,0,0,0,0,0,0,0,0,0,0,0,0,0,0.0809,0.0813,0.0835,0.0792,0.0788,0.0813,0.0812,0.0812,0.0734,0.0731,0.0729,0.0726,0.0709,0.0711,0.0713,0.0778,0,0,0.0718,0.0719,0,0,0,0,0,0,0,0,0.081,0.081,0.0799,0.0795,0.0791,0.0773,0.0798,0.0801,0.0735,0.0755,0.0728,0.0725,0.0733,0.0733,0.0735,0.0777,0.0776,0.0718,0.0719,0.072,0.0721,0,0,0,0,0,0,0,0.081,0.0811,0.0826,0.0799,0.0794,0.0775,0.0772,0.0798,0.076,0.0753,0.0747,0.0745,0.0731,0.0734,0.0734,0.0776,0.0718,0.072,0.0721,0.0722,0.087,0.0872,0,0,0,0,0,0,0.0816,0.0811,0.0827,0.0825,0.0794,0.0778,0.0774,0.0781,0.0759,0.0753,0.0748,0.0742,0.0732,0.0732,0.0733,0.0808,0.072,0.0722,0.0723,0.0867,0.087,0.0873,0,0,0,0,0,0,0.0815,0.0818,0.0828,0.0817,0.0817,0.0781,0.079,0.0782,0.0785,0.0755,0.0748,0.0757,0.073,0.0731,0.0767,0.0807,0.0723,0.0724,0.0863,0.0868,0.0872,0.0959,0,0,0,0,0,0,0.0815,0.0818,0.0842,0.0818,0.0817,0.0861,0.0792,0.0784,0.0788,0.078,0.0762,0.0757,0.0728,0.0765,0.0769,0.0808,0.0726,0.086,0.0865,0.087,0.0953,0.0966,0.0977,0,0,0,0,0,0.0815,0.0869,0.0844,0.0846,0.0846,0.0864,0.0864,0.0828,0.0791,0.0816,0.0796,0.0758,0.0801,0.0769,0.0773,0.0813,0.0857,0.0864,0.087,0.0947,0.0963,0.0977,0,0,0,0,0,0,0.0901,0.0865,0.0837,0.0884,0.0877,0.085,0.088,0.0846,0.085,0.0843,0.0799,0.0796,0.0839,0.0829,0.0794,0.0874,0.0823,0.083,0.088,0.0895,0.0907,0.091,0.0727,0,0,0,0,0,0.0925,0.094,0.0909,0.0954,0.0951,0.0916,0.0923,0.0895,0.0887,0.0884,0.0867,0.0862,0.0874,0.0883,0.0893,0.0949,0.0945,0.0979,0.0991,0.1001,0.101,0.1039,0.1054,0.0894,0.0894,0.0894,0,0,0.0976,0.0958,0.0971,0.0971,0.0962,0.0981,0.0915,0.0937,0.0951,0.0888,0.0921,0.0908,0.0899,0.0946,0.0966,0.0939,0.1052,0.101,0.1018,0.102,0.1047,0.1063,0.1076,0.0899,0.0898,0.0897,0,0,0.1078,0.1066,0.1102,0.1094,0.1081,0.1057,0.1065,0.1043,0.1032,0.1063,0.1016,0.1032,0.1054,0.105,0.105,0.1148,0.1114,0.1153,0.1218,0.1248,0.126,0.1271,0.1308,0.1322,0.116,0.116,0.116,0,0.1144,0.1169,0.1126,0.1151,0.1152,0.1093,0.113,0.1125,0.1117,0.112,0.1089,0.1114,0.1104,0.1149,0.1173,0.1175,0.1185,0.1156,0.1262,0.1272,0.1282,0.1317,0.133,0.1165,0.1165,0.1164,0.1164,0,0.1251,0.1269,0.13,0.1291,0.1296,0.1327,0.1289,0.1299,0.127,0.1249,0.1283,0.1267,0.1273,0.1281,0.1254,0.1322,0.1306,0.1269,0.1217,0.1303,0.1335,0.1348,0.1172,0.1171,0.1169,0.1168,0,0,0.1411,0.1376,0.1388,0.1383,0.1363,0.1377,0.1405,0.1408,0.1418,0.1413,0.1437,0.1456,0.1421,0.1421,0.1393,0.1418,0.1498,0.1378,0.1377,0.1403,0.1575,0.1605,0.1621,0.1474,0.1476,0.1478,0.1576,0,0.151,0.1556,0.1516,0.157,0.1586,0.1529,0.1553,0.1544,0.1525,0.1536,0.1515,0.153,0.1482,0.1482,0.1504,0.1484,0.1533,0.1476,0.1498,0.1499,0.1505,0.1637,0.1669,0.1763,0.1588,0.159,0.1591,0,0.1633,0.1632,0.1687,0.1662,0.1667,0.169,0.169,0.1701,0.1689,0.1673,0.1673,0.1637,0.1663,0.1609,0.1646,0.1608,0.1614,0.1605,0.1608,0.1612,0.1553,0.1646,0.1792,0.1807,0.161,0.1609,0.1607,0,0.1747,0.1759,0.1793,0.1791,0.1762,0.178,0.1769,0.1754,0.1758,0.1758,0.176,0.1763,0.1766,0.177,0.1736,0.1699,0.1778,0.172,0.1767,0.1768,0.1789,0.1789,0.1941,0.1788,0.1788,0.1788,0.1788,0,0.1864,0.19,0.1844,0.1866,0.1904,0.1858,0.1898,0.1881,0.1868,0.1886,0.1836,0.1854,0.1806,0.182,0.1793,0.1828,0.1829,0.1818,0.1812,0.1825,0.1827,0.1831,0.1824,0.1792,0.1791,0.179,0.1789,0,0.2,0.1963,0.1997,0.1965,0.1958,0.1989,0.1963,0.1982,0.1957,0.1981,0.1984,0.1947,0.196,0.1924,0.1933,0.1914,0.1966,0.1947,0.1971,0.1966,0.2015,0.2012,0.2177,0.2197,0.203,0.2031,0.2033,0,0.2078,0.2104,0.2075,0.2083,0.2074,0.2087,0.209,0.2045,0.2051,0.2038,0.2059,0.2067,0.2072,0.2095,0.207,0.2076,0.2058,0.2115,0.2059,0.2072,0.2062,0.2062,0.2065,0.2129,0.2131,0.2132,0.2134,0,0.2222,0.2202,0.2208,0.2208,0.2212,0.221,0.2205,0.2214,0.2165,0.2175,0.2186,0.2189,0.2196,0.2206,0.2205,0.2195,0.2158,0.2151,0.2162,0.2178,0.2191,0.2187,0.2005,0.2148,0.2147,0.2146,0.2145,0.2144,0.2333,0.2354,0.2336,0.2344,0.2335,0.233,0.2347,0.2323,0.2331,0.2333,0.2305,0.2323,0.2309,0.2304,0.2298,0.2311,0.2286,0.2302,0.2307,0.2312,0.2321,0.2186,0.2311,0.231,0.231,0.231,0.2309,0,0.2476,0.2461,0.2469,0.2462,0.2469,0.2428,0.242,0.2429,0.2444,0.2434,0.2438,0.2451,0.246,0.2434,0.2438,0.2455,0.2438,0.2458,0.2458,0.2457,0.2343,0.2334,0.2472,0.2472,0.2472,0.2472,0.2472,0.2471,0.2552,0.2585,0.2563,0.259,0.2575,0.259,0.2589,0.2585,0.2576,0.2593,0.2599,0.2581,0.2564,0.2567,0.2573,0.2565,0.2571,0.2598,0.2585,0.248,0.2464,0.2449,0.2441,0.2599,0.2599,0.2697,0.2698,0.2699]},{"header":{"parameterUnit":"m.s-1","parameterCategory":1,"la1":30.2991,"la2":30.254,"lo1":-89.0895,"lo2":-89.0444,"dy":0.0017,"dx":0.0017,"nx":28,"ny":28,"refTime":"2025-06-20T03:00:00:Z","depth":0,"parameterNumber":3,"parameterNumberName":"V-component_of_WINDS"},"data":[0,0,0,0,0,0,0,0,0,0,0,0,0,0,0,0,0,0,0,0,0,0,0,0,0,0,0,0,0,0,0,0,0,0,0,0,0,0,0,0,0,0,0,0,0,0,0,0,0,0,0,0,0,0,0,0,0,0,-0.3676,-0.3676,0,-0.3733,-0.3733,-0.3734,-0.378,-0.378,-0.3781,-0.3781,-0.384,-0.3842,-0.3843,0,0,0,0,0,0,0,0,0,0,0,0,0,-0.3609,-0.361,-0.3676,-0.3677,-0.3677,-0.3733,-0.3733,-0.3734,-0.378,-0.378,-0.3781,-0.3781,-0.384,-0.3841,-0.3843,0,0,0,0,0,0,0,0,0,0,0,0,0,-0.3649,-0.3611,-0.3676,-0.3707,-0.371,-0.3732,-0.3733,-0.3734,-0.378,-0.378,-0.3781,-0.3782,-0.384,-0.3841,-0.3843,-0.3839,0,0,-0.3848,-0.3849,0,0,0,0,0,0,0,0,-0.3647,-0.3652,-0.3701,-0.3705,-0.3708,-0.375,-0.3732,-0.377,-0.3779,-0.3753,-0.3781,-0.3782,-0.381,-0.3814,-0.3823,-0.3842,-0.3845,-0.3848,-0.3849,-0.385,-0.3851,0,0,0,0,0,0,0,-0.3644,-0.365,-0.3698,-0.3702,-0.3706,-0.3719,-0.3725,-0.3739,-0.3777,-0.3756,-0.3759,-0.3765,-0.3812,-0.3821,-0.3825,-0.3846,-0.3848,-0.385,-0.3851,-0.3852,-0.3867,-0.3867,0,0,0,0,0,0,-0.3636,-0.3647,-0.3697,-0.37,-0.3679,-0.3719,-0.3726,-0.3736,-0.3777,-0.3784,-0.3764,-0.3767,-0.3818,-0.3823,-0.3827,-0.3827,-0.385,-0.3852,-0.3853,-0.3868,-0.3867,-0.3867,0,0,0,0,0,0,-0.3635,-0.364,-0.3694,-0.3675,-0.3682,-0.372,-0.373,-0.3737,-0.3746,-0.3784,-0.3791,-0.3767,-0.3819,-0.3825,-0.3837,-0.383,-0.3852,-0.3854,-0.3869,-0.3868,-0.3867,-0.3826,0,0,0,0,0,0,-0.3633,-0.364,-0.3638,-0.3674,-0.3683,-0.3702,-0.3729,-0.3737,-0.3749,-0.3753,-0.3788,-0.3794,-0.382,-0.3834,-0.3838,-0.3833,-0.3855,-0.3869,-0.3868,-0.3867,-0.3828,-0.3824,-0.382,0,0,0,0,0,-0.363,-0.3624,-0.3637,-0.3643,-0.3682,-0.3701,-0.3706,-0.3735,-0.3748,-0.3747,-0.3772,-0.3793,-0.383,-0.3835,-0.384,-0.3835,-0.387,-0.3869,-0.3867,-0.383,-0.3825,-0.382,0,0,0,0,0,0,-0.3585,-0.3629,-0.3645,-0.365,-0.3671,-0.3709,-0.3708,-0.3729,-0.3747,-0.375,-0.3786,-0.3794,-0.3802,-0.382,-0.3824,-0.3835,-0.3853,-0.3853,-0.3823,-0.3818,-0.3814,-0.381,-0.3857,0,0,0,0,0,-0.3576,-0.3588,-0.3625,-0.3626,-0.3636,-0.367,-0.368,-0.3701,-0.3725,-0.3734,-0.3759,-0.3782,-0.38,-0.381,-0.3827,-0.3831,-0.384,-0.3831,-0.3826,-0.3823,-0.3822,-0.3828,-0.3824,-0.3862,-0.3862,-0.3862,0,0,-0.3557,-0.3582,-0.3587,-0.3618,-0.3637,-0.3649,-0.3678,-0.3689,-0.3699,-0.3736,-0.3749,-0.3768,-0.3797,-0.3805,-0.381,-0.382,-0.3814,-0.3821,-0.3818,-0.3819,-0.3826,-0.3822,-0.3819,-0.3861,-0.3861,-0.3861,0,0,-0.3528,-0.3548,-0.3552,-0.3571,-0.36,-0.3623,-0.3624,-0.3659,-0.3673,-0.3687,-0.3716,-0.3728,-0.3756,-0.3776,-0.3789,-0.3771,-0.3792,-0.3775,-0.3754,-0.3759,-0.3756,-0.3754,-0.3748,-0.3745,-0.3775,-0.3775,-0.3774,0,-0.3501,-0.352,-0.3551,-0.3561,-0.3574,-0.3609,-0.3614,-0.3631,-0.3664,-0.3673,-0.3684,-0.3722,-0.3743,-0.3757,-0.3753,-0.3762,-0.3765,-0.3771,-0.3754,-0.3752,-0.375,-0.3745,-0.3743,-0.3772,-0.3773,-0.3773,-0.3773,0,-0.3485,-0.3498,-0.3498,-0.3529,-0.3543,-0.355,-0.3583,-0.3593,-0.3614,-0.3636,-0.365,-0.3678,-0.3702,-0.3707,-0.3727,-0.3725,-0.373,-0.3747,-0.3766,-0.3744,-0.374,-0.3738,-0.3769,-0.377,-0.3771,-0.3771,0,0,-0.3428,-0.3479,-0.3478,-0.3494,-0.3529,-0.354,-0.355,-0.3574,-0.3582,-0.3605,-0.3615,-0.3639,-0.3655,-0.367,-0.3693,-0.3697,-0.3682,-0.3714,-0.3715,-0.3707,-0.3683,-0.3671,-0.3668,-0.3697,-0.3696,-0.3696,-0.3681,0,-0.3406,-0.3424,-0.3454,-0.3463,-0.3477,-0.3511,-0.352,-0.3543,-0.3565,-0.358,-0.3605,-0.3621,-0.3641,-0.3651,-0.3657,-0.3682,-0.3678,-0.3684,-0.3707,-0.3708,-0.3699,-0.3666,-0.3652,-0.3636,-0.368,-0.368,-0.3679,0,-0.3381,-0.3402,-0.3413,-0.3449,-0.3456,-0.3463,-0.3489,-0.3502,-0.3531,-0.3546,-0.3564,-0.3589,-0.3603,-0.362,-0.364,-0.3644,-0.3656,-0.367,-0.367,-0.3674,-0.3692,-0.3668,-0.3632,-0.363,-0.3677,-0.3677,-0.3677,0,-0.334,-0.337,-0.3381,-0.3394,-0.3436,-0.3441,-0.3459,-0.3488,-0.3501,-0.3524,-0.3533,-0.3557,-0.357,-0.3589,-0.362,-0.363,-0.3637,-0.3657,-0.3652,-0.3651,-0.3651,-0.3651,-0.3616,-0.3658,-0.3658,-0.3658,-0.3658,0,-0.3311,-0.3316,-0.3364,-0.337,-0.3378,-0.3413,-0.342,-0.3441,-0.3467,-0.348,-0.3511,-0.3522,-0.3563,-0.3579,-0.3604,-0.3618,-0.3623,-0.3637,-0.3644,-0.3635,-0.3633,-0.3643,-0.3645,-0.3658,-0.3658,-0.3658,-0.3658,0,-0.3265,-0.3297,-0.3311,-0.3351,-0.3361,-0.3365,-0.34,-0.3409,-0.3433,-0.3449,-0.3454,-0.3493,-0.3514,-0.3547,-0.3578,-0.3595,-0.3605,-0.3615,-0.3595,-0.3599,-0.3592,-0.3592,-0.3563,-0.3561,-0.3603,-0.3603,-0.3602,0,-0.3245,-0.325,-0.3291,-0.3302,-0.3319,-0.3335,-0.3349,-0.3385,-0.3398,-0.3432,-0.3437,-0.346,-0.3481,-0.3514,-0.3545,-0.3569,-0.3581,-0.3569,-0.3585,-0.3576,-0.3582,-0.3581,-0.3583,-0.3565,-0.3565,-0.3564,-0.3564,0,-0.3206,-0.3222,-0.3241,-0.3265,-0.3281,-0.3303,-0.3325,-0.3332,-0.3373,-0.3387,-0.3409,-0.3425,-0.3458,-0.3481,-0.3511,-0.3531,-0.3554,-0.3559,-0.3559,-0.3549,-0.3538,-0.3545,-0.3585,-0.3559,-0.356,-0.356,-0.356,-0.356,-0.3173,-0.318,-0.321,-0.3231,-0.3252,-0.3273,-0.3283,-0.331,-0.3328,-0.3357,-0.3378,-0.3399,-0.3429,-0.3471,-0.349,-0.3508,-0.3518,-0.3518,-0.3518,-0.3518,-0.3515,-0.3535,-0.3513,-0.3514,-0.3514,-0.3514,-0.3514,0,-0.3136,-0.3158,-0.3177,-0.3208,-0.3224,-0.3246,-0.3273,-0.3285,-0.3303,-0.333,-0.335,-0.3376,-0.34,-0.3434,-0.3461,-0.3469,-0.3481,-0.3475,-0.3474,-0.3479,-0.3504,-0.3501,-0.3465,-0.3465,-0.3465,-0.3465,-0.3465,-0.3465,-0.3119,-0.3132,-0.3152,-0.3177,-0.3199,-0.322,-0.3234,-0.3254,-0.3275,-0.3303,-0.3323,-0.3345,-0.3375,-0.3405,-0.3428,-0.3438,-0.3446,-0.3437,-0.345,-0.3472,-0.3477,-0.3481,-0.3479,-0.3439,-0.3439,-0.3424,-0.3424,-0.3424]}]]